Time,TemperatureF,DewpointF,PressureIn,WindDirection,WindDirectionDegrees,WindSpeedMPH,WindSpeedGustMPH,Humidity,HourlyPrecipIn,Conditions,Clouds,dailyrainin,SoftwareType,DateUTC
2013-01-16 00:04:00,28.0,7.3,29.91,ENE,58,0.0,0.0,41,0.00,CLR,CLR,0.00,WeatherDisplay:10.37,2013-01-16 05:04:00,
2013-01-16 00:09:00,28.0,7.9,29.91,ENE,58,0.0,0.0,42,0.00,CLR,CLR,0.00,WeatherDisplay:10.37,2013-01-16 05:09:00,
2013-01-16 00:19:00,28.0,7.9,29.91,ENE,71,0.0,0.0,42,0.00,CLR,CLR,0.00,WeatherDisplay:10.37,2013-01-16 05:19:00,
2013-01-16 00:23:00,27.9,7.7,29.91,ESE,105,0.0,0.0,42,0.00,CLR,CLR,0.00,WeatherDisplay:10.37,2013-01-16 05:23:00,
2013-01-16 00:29:00,27.9,7.7,29.91,ESE,122,0.0,0.0,42,0.00,CLR,CLR,0.00,WeatherDisplay:10.37,2013-01-16 05:29:00,
2013-01-16 00:34:00,27.9,7.7,29.91,ESE,122,0.0,0.0,42,0.00,CLR,CLR,0.00,WeatherDisplay:10.37,2013-01-16 05:34:00,
2013-01-16 00:39:00,27.7,7.5,29.91,ESE,122,0.0,0.0,42,0.00,CLR,CLR,0.00,WeatherDisplay:10.37,2013-01-16 05:39:00,
2013-01-16 00:53:00,27.7,8.1,29.91,NE,42,0.0,0.0,43,0.00,CLR,CLR,0.00,WeatherDisplay:10.37,2013-01-16 05:53:00,
2013-01-16 00:58:00,27.7,8.1,29.91,NE,42,0.0,0.0,43,0.00,CLR,CLR,0.00,WeatherDisplay:10.37,2013-01-16 05:58:00,
2013-01-16 01:03:00,27.5,7.9,29.91,NE,42,0.0,0.0,43,0.00,CLR,CLR,0.00,WeatherDisplay:10.37,2013-01-16 06:03:00,
2013-01-16 01:09:00,27.5,7.9,29.91,East,79,0.0,0.0,43,0.00,CLR,CLR,0.00,WeatherDisplay:10.37,2013-01-16 06:09:00,
2013-01-16 01:19:00,27.3,7.7,29.91,ESE,116,0.0,0.0,43,0.00,CLR,CLR,0.00,WeatherDisplay:10.37,2013-01-16 06:19:00,
2013-01-16 01:29:00,27.3,7.7,29.91,ESE,116,0.0,0.0,43,0.00,CLR,CLR,0.00,WeatherDisplay:10.37,2013-01-16 06:29:00,
2013-01-16 01:39:00,27.1,7.6,29.91,ESE,116,0.0,0.0,43,0.00,CLR,CLR,0.00,WeatherDisplay:10.37,2013-01-16 06:39:00,
2013-01-16 01:49:00,27.1,8.1,29.91,ESE,116,0.0,0.0,44,0.00,CLR,CLR,0.00,WeatherDisplay:10.37,2013-01-16 06:49:00,
2013-01-16 01:58:00,27.0,7.9,29.91,ESE,116,0.0,0.0,44,0.00,CLR,CLR,0.00,WeatherDisplay:10.37,2013-01-16 06:58:00,
2013-01-16 02:03:00,27.0,7.9,29.91,ESE,116,0.0,0.0,44,0.00,CLR,CLR,0.00,WeatherDisplay:10.37,2013-01-16 07:03:00,
2013-01-16 02:09:00,27.0,7.9,29.91,ESE,116,0.0,0.0,44,0.00,CLR,CLR,0.00,WeatherDisplay:10.37,2013-01-16 07:09:00,
2013-01-16 02:18:00,26.8,7.8,29.91,ESE,116,0.0,0.0,44,0.00,CLR,CLR,0.00,WeatherDisplay:10.37,2013-01-16 07:18:00,
2013-01-16 02:28:00,26.8,7.8,29.91,ESE,116,0.0,0.0,44,0.00,CLR,CLR,0.00,WeatherDisplay:10.37,2013-01-16 07:28:00,
2013-01-16 02:38:00,26.8,8.2,29.88,ESE,116,0.0,0.0,45,0.00,CLR,CLR,0.00,WeatherDisplay:10.37,2013-01-16 07:38:00,
2013-01-16 02:48:00,27.0,8.4,29.88,ESE,116,0.0,0.0,45,0.00,CLR,CLR,0.00,WeatherDisplay:10.37,2013-01-16 07:48:00,
2013-01-16 02:58:00,27.0,8.4,29.88,ESE,116,0.0,0.0,45,0.00,CLR,CLR,0.00,WeatherDisplay:10.37,2013-01-16 07:58:00,
2013-01-16 03:03:00,27.0,8.4,29.88,ESE,116,0.0,0.0,45,0.00,CLR,CLR,0.00,WeatherDisplay:10.37,2013-01-16 08:03:00,
2013-01-16 03:08:00,27.0,8.9,29.88,ESE,116,0.0,0.0,46,0.00,CLR,CLR,0.00,WeatherDisplay:10.37,2013-01-16 08:08:00,
2013-01-16 06:49:00,27.7,8.6,29.80,North,10,1.0,6.0,44,0.00,CLR,CLR,0.00,WeatherDisplay:10.37,2013-01-16 11:49:00,
2013-01-16 06:59:00,27.1,9.1,29.80,North,5,2.0,5.0,46,0.00,CLR,CLR,0.00,WeatherDisplay:10.37,2013-01-16 11:59:00,
2013-01-16 07:04:00,26.9,9.8,29.80,NNE,31,2.0,6.0,48,0.00,CLR,CLR,0.00,WeatherDisplay:10.37,2013-01-16 12:04:00,
2013-01-16 07:09:00,26.6,10.9,29.80,NE,39,2.0,5.0,51,0.00,CLR,CLR,0.00,WeatherDisplay:10.37,2013-01-16 12:09:00,
2013-01-16 07:19:00,26.2,11.4,29.80,NNE,33,0.0,3.0,53,0.00,CLR,CLR,0.00,WeatherDisplay:10.37,2013-01-16 12:19:00,
2013-01-16 07:29:00,26.2,11.8,29.80,NE,46,3.0,4.0,54,0.00,CLR,CLR,0.00,WeatherDisplay:10.37,2013-01-16 12:29:00,
2013-01-16 07:39:00,26.2,13.1,29.80,NE,34,3.0,5.0,57,0.00,CLR,CLR,0.00,WeatherDisplay:10.37,2013-01-16 12:39:00,
2013-01-16 07:49:00,26.2,13.5,29.80,NE,36,0.0,4.0,58,0.00,CLR,CLR,0.00,WeatherDisplay:10.37,2013-01-16 12:49:00,
2013-01-16 07:59:00,26.2,14.2,29.80,NNE,23,2.0,5.0,60,0.00,CLR,CLR,0.00,WeatherDisplay:10.37,2013-01-16 12:59:00,
2013-01-16 08:04:00,26.2,14.6,29.80,NNE,21,2.0,6.0,61,0.00,CLR,CLR,0.00,WeatherDisplay:10.37,2013-01-16 13:04:00,
2013-01-16 08:09:00,26.2,15.3,29.80,NNE,17,2.0,5.0,63,0.00,CLR,CLR,0.00,WeatherDisplay:10.37,2013-01-16 13:09:00,
2013-01-16 08:19:00,26.2,15.7,29.80,NNE,19,2.0,4.0,64,0.00,CLR,CLR,0.00,WeatherDisplay:10.37,2013-01-16 13:19:00,
2013-01-16 08:29:00,26.4,16.6,29.80,NNE,12,2.0,4.0,66,0.00,CLR,CLR,0.00,WeatherDisplay:10.37,2013-01-16 13:29:00,
2013-01-16 08:39:00,26.6,17.5,29.80,North,6,5.0,6.0,68,0.00,CLR,CLR,0.00,WeatherDisplay:10.37,2013-01-16 13:39:00,
2013-01-16 08:49:00,26.8,18.3,29.80,North,3,2.0,4.0,70,0.00,CLR,CLR,0.00,WeatherDisplay:10.37,2013-01-16 13:49:00,
2013-01-16 08:59:00,27.0,18.5,29.80,NNE,19,3.0,5.0,70,0.00,CLR,CLR,0.00,WeatherDisplay:10.37,2013-01-16 13:59:00,
2013-01-16 09:09:00,27.1,19.3,29.77,North,10,1.0,6.0,72,0.00,CLR,CLR,0.00,WeatherDisplay:10.37,2013-01-16 14:09:00,
2013-01-16 09:19:00,27.3,19.5,29.77,NNE,17,1.0,4.0,72,0.00,CLR,CLR,0.00,WeatherDisplay:10.37,2013-01-16 14:19:00,
2013-01-16 09:29:00,27.4,19.9,29.77,NNE,12,3.0,6.0,73,0.00,CLR,CLR,0.00,WeatherDisplay:10.37,2013-01-16 14:29:00,
2013-01-16 09:39:00,27.5,20.0,29.77,North,1,3.0,6.0,73,0.00,CLR,CLR,0.00,WeatherDisplay:10.37,2013-01-16 14:39:00,
2013-01-16 09:44:00,27.5,20.3,29.77,North,354,2.0,6.0,74,0.00,CLR,CLR,0.00,WeatherDisplay:10.37,2013-01-16 14:44:00,
2013-01-16 09:48:00,27.5,20.3,29.77,NNW,348,2.0,6.0,74,0.00,CLR,CLR,0.00,WeatherDisplay:10.37,2013-01-16 14:48:00,
2013-01-16 09:58:00,27.7,20.8,29.77,NNW,345,2.0,5.0,75,0.00,CLR,CLR,0.00,WeatherDisplay:10.37,2013-01-16 14:58:00,
2013-01-16 10:03:00,27.9,21.0,29.77,NNW,345,3.0,6.0,75,0.00,CLR,CLR,0.00,WeatherDisplay:10.37,2013-01-16 15:03:00,
2013-01-16 10:08:00,27.9,21.3,29.77,North,355,3.0,6.0,76,0.00,CLR,CLR,0.00,WeatherDisplay:10.37,2013-01-16 15:08:00,
2013-01-16 10:18:00,28.1,21.5,29.71,North,10,3.0,6.0,76,0.00,CLR,CLR,0.00,WeatherDisplay:10.37,2013-01-16 15:18:00,
2013-01-16 10:28:00,28.3,22.0,29.71,NNE,14,3.0,6.0,77,0.00,CLR,CLR,0.00,WeatherDisplay:10.37,2013-01-16 15:28:00,
2013-01-16 10:38:00,28.4,22.1,29.71,North,8,3.0,6.0,77,0.00,CLR,CLR,0.00,WeatherDisplay:10.37,2013-01-16 15:38:00,
2013-01-16 10:48:00,28.6,22.3,29.71,North,6,1.0,6.0,77,0.00,CLR,CLR,0.00,WeatherDisplay:10.37,2013-01-16 15:48:00,
2013-01-16 10:58:00,28.9,22.9,29.71,North,357,0.0,4.0,78,0.00,CLR,CLR,0.00,WeatherDisplay:10.37,2013-01-16 15:58:00,
2013-01-16 11:03:00,29.1,23.1,29.71,North,356,3.0,6.0,78,0.00,CLR,CLR,0.00,WeatherDisplay:10.37,2013-01-16 16:03:00,
2013-01-16 11:08:00,29.1,23.1,29.71,NNW,346,3.0,6.0,78,0.00,CLR,CLR,0.00,WeatherDisplay:10.37,2013-01-16 16:08:00,
2013-01-16 11:18:00,29.2,23.2,29.68,North,2,3.0,5.0,78,0.00,CLR,CLR,0.00,WeatherDisplay:10.37,2013-01-16 16:18:00,
2013-01-16 11:28:00,29.3,23.6,29.68,North,4,5.0,6.0,79,0.00,CLR,CLR,0.00,WeatherDisplay:10.37,2013-01-16 16:28:00,
2013-01-16 11:38:00,29.5,23.8,29.65,North,9,6.0,8.0,79,0.00,CLR,CLR,0.00,WeatherDisplay:10.37,2013-01-16 16:38:00,
2013-01-16 11:48:00,29.7,23.9,29.65,North,0,3.0,6.0,79,0.00,CLR,CLR,0.00,WeatherDisplay:10.37,2013-01-16 16:48:00,
2013-01-16 11:58:00,30.0,24.6,29.65,NNW,337,3.0,6.0,80,0.00,CLR,CLR,0.00,WeatherDisplay:10.37,2013-01-16 16:58:00,
2013-01-16 12:03:00,30.0,24.6,29.65,NNW,343,3.0,6.0,80,0.00,CLR,CLR,0.00,WeatherDisplay:10.37,2013-01-16 17:03:00,
2013-01-16 12:08:00,30.0,24.6,29.65,NNW,337,5.0,6.0,80,0.00,CLR,CLR,0.00,WeatherDisplay:10.37,2013-01-16 17:08:00,
2013-01-16 12:18:00,30.2,24.8,29.65,NNW,346,3.0,6.0,80,0.00,CLR,CLR,0.00,WeatherDisplay:10.37,2013-01-16 17:18:00,
2013-01-16 12:28:00,30.2,24.8,29.65,NNW,342,5.0,6.0,80,0.00,CLR,CLR,0.00,WeatherDisplay:10.37,2013-01-16 17:28:00,
2013-01-16 12:38:00,30.2,24.8,29.62,NNW,335,3.0,6.0,80,0.00,CLR,CLR,0.00,WeatherDisplay:10.37,2013-01-16 17:38:00,
2013-01-16 12:48:00,30.2,24.8,29.62,North,8,3.0,7.0,80,0.00,CLR,CLR,0.00,WeatherDisplay:10.37,2013-01-16 17:48:00,
2013-01-16 12:58:00,30.2,24.8,29.62,NNE,12,3.0,6.0,80,0.00,CLR,CLR,0.00,WeatherDisplay:10.37,2013-01-16 17:58:00,
2013-01-16 13:03:00,30.2,24.8,29.59,North,5,3.0,6.0,80,0.00,CLR,CLR,0.00,WeatherDisplay:10.37,2013-01-16 18:03:00,
2013-01-16 13:08:00,30.2,24.8,29.59,NNE,13,3.0,6.0,80,0.00,CLR,CLR,0.00,WeatherDisplay:10.37,2013-01-16 18:08:00,
2013-01-16 13:18:00,30.0,24.6,29.59,NNE,18,3.0,6.0,80,0.00,CLR,CLR,0.00,WeatherDisplay:10.37,2013-01-16 18:18:00,
2013-01-16 13:28:00,30.2,24.8,29.59,North,9,3.0,7.0,80,0.00,CLR,CLR,0.00,WeatherDisplay:10.37,2013-01-16 18:28:00,
2013-01-16 13:38:00,30.2,24.8,29.59,NNE,14,5.0,6.0,80,0.00,CLR,CLR,0.00,WeatherDisplay:10.37,2013-01-16 18:38:00,
2013-01-16 13:48:00,30.4,25.2,29.59,North,8,3.0,6.0,81,0.00,CLR,CLR,0.00,WeatherDisplay:10.37,2013-01-16 18:48:00,
2013-01-16 13:58:00,30.4,25.2,29.59,NNE,24,5.0,6.0,81,0.00,CLR,CLR,0.00,WeatherDisplay:10.37,2013-01-16 18:58:00,
2013-01-16 14:03:00,30.4,25.2,29.56,NNE,27,3.0,7.0,81,0.00,CLR,CLR,0.00,WeatherDisplay:10.37,2013-01-16 19:03:00,
2013-01-16 14:08:00,30.6,25.4,29.56,NE,34,2.0,5.0,81,0.00,CLR,CLR,0.00,WeatherDisplay:10.37,2013-01-16 19:08:00,
2013-01-16 14:18:00,30.6,25.4,29.56,NNE,12,3.0,6.0,81,0.00,CLR,CLR,0.00,WeatherDisplay:10.37,2013-01-16 19:18:00,
2013-01-16 14:28:00,30.4,24.9,29.56,North,6,5.0,7.0,80,0.00,CLR,CLR,0.00,WeatherDisplay:10.37,2013-01-16 19:28:00,
2013-01-16 14:38:00,30.4,24.9,29.53,NNE,24,3.0,5.0,80,0.00,CLR,CLR,0.00,WeatherDisplay:10.37,2013-01-16 19:38:00,
2013-01-16 14:48:00,30.4,24.9,29.56,North,8,2.0,6.0,80,0.00,CLR,CLR,0.00,WeatherDisplay:10.37,2013-01-16 19:48:00,
2013-01-16 14:58:00,30.6,25.4,29.56,North,1,0.0,4.0,81,0.00,CLR,CLR,0.00,WeatherDisplay:10.37,2013-01-16 19:58:00,
2013-01-16 15:03:00,30.6,25.4,29.53,NNW,345,3.0,6.0,81,0.00,CLR,CLR,0.00,WeatherDisplay:10.37,2013-01-16 20:03:00,
2013-01-16 15:08:00,30.6,25.4,29.53,NNW,335,6.0,8.0,81,0.00,CLR,CLR,0.00,WeatherDisplay:10.37,2013-01-16 20:08:00,
2013-01-16 15:18:00,30.6,25.4,29.53,NNW,338,7.0,9.0,81,0.00,CLR,CLR,0.00,WeatherDisplay:10.37,2013-01-16 20:18:00,
2013-01-16 15:28:00,30.4,25.2,29.53,NNW,342,3.0,6.0,81,0.00,CLR,CLR,0.00,WeatherDisplay:10.37,2013-01-16 20:28:00,
2013-01-16 15:38:00,30.4,25.2,29.53,NNW,340,3.0,6.0,81,0.00,CLR,CLR,0.00,WeatherDisplay:10.37,2013-01-16 20:38:00,
2013-01-16 15:48:00,30.2,25.1,29.53,North,358,2.0,4.0,81,0.00,CLR,CLR,0.00,WeatherDisplay:10.37,2013-01-16 20:48:00,
2013-01-16 15:58:00,30.4,25.2,29.53,NNW,342,5.0,6.0,81,0.00,CLR,CLR,0.00,WeatherDisplay:10.37,2013-01-16 20:58:00,
2013-01-16 16:03:00,30.2,25.1,29.53,NNW,338,0.0,5.0,81,0.00,CLR,CLR,0.00,WeatherDisplay:10.37,2013-01-16 21:03:00,
2013-01-16 16:08:00,30.2,25.1,29.53,NNW,339,2.0,6.0,81,0.00,CLR,CLR,0.00,WeatherDisplay:10.37,2013-01-16 21:08:00,
2013-01-16 16:18:00,30.2,25.1,29.53,NNW,332,5.0,6.0,81,0.00,CLR,CLR,0.00,WeatherDisplay:10.37,2013-01-16 21:18:00,
2013-01-16 16:28:00,30.0,25.2,29.53,NNW,334,3.0,6.0,82,0.00,CLR,CLR,0.00,WeatherDisplay:10.37,2013-01-16 21:28:00,
2013-01-16 16:38:00,30.0,25.2,29.53,NNW,334,3.0,8.0,82,0.00,CLR,CLR,0.00,WeatherDisplay:10.37,2013-01-16 21:38:00,
2013-01-16 16:48:00,30.2,25.4,29.53,NNW,331,2.0,4.0,82,0.00,CLR,CLR,0.00,WeatherDisplay:10.37,2013-01-16 21:48:00,
2013-01-16 16:58:00,30.2,25.4,29.53,North,356,3.0,4.0,82,0.00,CLR,CLR,0.00,WeatherDisplay:10.37,2013-01-16 21:58:00,
2013-01-16 17:03:00,30.2,25.4,29.53,North,350,2.0,4.0,82,0.00,CLR,CLR,0.00,WeatherDisplay:10.37,2013-01-16 22:03:00,
2013-01-16 17:08:00,30.2,25.4,29.53,North,349,3.0,6.0,82,0.00,CLR,CLR,0.00,WeatherDisplay:10.37,2013-01-16 22:08:00,
2013-01-16 17:18:00,30.2,25.4,29.53,NNW,329,2.0,4.0,82,0.00,CLR,CLR,0.00,WeatherDisplay:10.37,2013-01-16 22:18:00,
2013-01-16 17:28:00,30.4,25.8,29.53,NNW,333,3.0,6.0,83,0.00,CLR,CLR,0.00,WeatherDisplay:10.37,2013-01-16 22:28:00,
2013-01-16 17:38:00,30.2,25.7,29.50,North,357,0.0,3.0,83,0.00,CLR,CLR,0.00,WeatherDisplay:10.37,2013-01-16 22:38:00,
2013-01-16 17:48:00,30.2,25.7,29.50,NNW,347,2.0,4.0,83,0.00,CLR,CLR,0.00,WeatherDisplay:10.37,2013-01-16 22:48:00,
2013-01-16 17:58:00,30.2,25.7,29.50,NNW,328,2.0,4.0,83,0.00,CLR,CLR,0.00,WeatherDisplay:10.37,2013-01-16 22:58:00,
2013-01-16 18:03:00,30.2,25.7,29.50,NNW,332,0.0,4.0,83,0.00,CLR,CLR,0.00,WeatherDisplay:10.37,2013-01-16 23:03:00,
2013-01-16 18:08:00,30.2,25.7,29.50,NNW,346,3.0,5.0,83,0.00,CLR,CLR,0.00,WeatherDisplay:10.37,2013-01-16 23:08:00,
2013-01-16 18:18:00,30.2,25.7,29.50,NNW,329,5.0,6.0,83,0.00,CLR,CLR,0.00,WeatherDisplay:10.37,2013-01-16 23:18:00,
2013-01-16 18:28:00,30.2,25.7,29.50,NNW,340,2.0,6.0,83,0.00,CLR,CLR,0.00,WeatherDisplay:10.37,2013-01-16 23:28:00,
2013-01-16 18:38:00,30.2,25.7,29.50,North,11,2.0,4.0,83,0.00,CLR,CLR,0.00,WeatherDisplay:10.37,2013-01-16 23:38:00,
2013-01-16 18:48:00,30.2,25.7,29.47,North,358,0.0,0.0,83,0.00,CLR,CLR,0.00,WeatherDisplay:10.37,2013-01-16 23:48:00,
2013-01-16 18:58:00,30.2,25.7,29.47,North,356,0.0,3.0,83,0.00,CLR,CLR,0.00,WeatherDisplay:10.37,2013-01-16 23:58:00,
2013-01-16 19:08:00,30.2,25.7,29.47,NNW,338,2.0,3.0,83,0.00,CLR,CLR,0.00,WeatherDisplay:10.37,2013-01-17 00:08:00,
2013-01-16 19:18:00,30.2,25.9,29.47,NW,311,0.0,4.0,84,0.00,CLR,CLR,0.00,WeatherDisplay:10.37,2013-01-17 00:18:00,
2013-01-16 19:28:00,30.4,26.1,29.47,NW,319,0.0,3.0,84,0.00,CLR,CLR,0.00,WeatherDisplay:10.37,2013-01-17 00:28:00,
2013-01-16 19:38:00,30.4,26.1,29.47,NW,318,0.0,2.0,84,0.00,CLR,CLR,0.00,WeatherDisplay:10.37,2013-01-17 00:38:00,
2013-01-16 19:48:00,30.4,26.1,29.47,NNW,335,0.0,4.0,84,0.00,CLR,CLR,0.00,WeatherDisplay:10.37,2013-01-17 00:48:00,
2013-01-16 19:58:00,30.4,26.1,29.47,NW,308,0.0,3.0,84,0.00,CLR,CLR,0.00,WeatherDisplay:10.37,2013-01-17 00:58:00,
2013-01-16 20:03:00,30.5,26.2,29.47,WNW,300,2.0,4.0,84,0.00,CLR,CLR,0.00,WeatherDisplay:10.37,2013-01-17 01:03:00,
2013-01-16 20:08:00,30.4,26.1,29.47,WNW,295,0.0,3.0,84,0.00,CLR,CLR,0.00,WeatherDisplay:10.37,2013-01-17 01:08:00,
2013-01-16 20:18:00,30.4,26.1,29.47,WNW,297,0.0,4.0,84,0.00,CLR,CLR,0.00,WeatherDisplay:10.37,2013-01-17 01:18:00,
2013-01-16 20:28:00,30.4,26.4,29.47,West,280,0.0,3.0,85,0.00,CLR,CLR,0.00,WeatherDisplay:10.37,2013-01-17 01:28:00,
2013-01-16 20:38:00,30.4,26.4,29.47,WNW,292,0.0,0.0,85,0.00,CLR,CLR,0.00,WeatherDisplay:10.37,2013-01-17 01:38:00,
2013-01-16 20:48:00,30.4,26.4,29.47,WNW,301,0.0,0.0,85,0.00,CLR,CLR,0.00,WeatherDisplay:10.37,2013-01-17 01:48:00,
2013-01-16 20:58:00,30.6,26.6,29.47,WNW,300,0.0,0.0,85,0.00,CLR,CLR,0.00,WeatherDisplay:10.37,2013-01-17 01:58:00,
2013-01-16 21:03:00,30.6,26.6,29.47,WNW,302,0.0,0.0,85,0.00,CLR,CLR,0.00,WeatherDisplay:10.37,2013-01-17 02:03:00,
2013-01-16 21:08:00,30.6,26.6,29.47,West,281,0.0,3.0,85,0.00,CLR,CLR,0.00,WeatherDisplay:10.37,2013-01-17 02:08:00,
2013-01-16 21:18:00,30.7,26.8,29.44,West,265,0.0,3.0,85,0.00,CLR,CLR,0.00,WeatherDisplay:10.37,2013-01-17 02:18:00,
2013-01-16 21:28:00,30.7,26.8,29.44,West,269,1.0,3.0,85,0.00,CLR,CLR,0.00,WeatherDisplay:10.37,2013-01-17 02:28:00,
2013-01-16 21:38:00,30.7,27.0,29.44,West,265,2.0,4.0,86,0.00,CLR,CLR,0.00,WeatherDisplay:10.37,2013-01-17 02:38:00,
2013-01-16 21:48:00,30.7,27.0,29.44,West,265,1.0,6.0,86,0.00,CLR,CLR,0.00,WeatherDisplay:10.37,2013-01-17 02:48:00,
2013-01-16 21:58:00,30.7,27.0,29.44,WNW,289,0.0,3.0,86,0.00,CLR,CLR,0.00,WeatherDisplay:10.37,2013-01-17 02:58:00,
2013-01-16 22:03:00,30.7,27.0,29.44,WNW,301,0.0,2.0,86,0.00,CLR,CLR,0.00,WeatherDisplay:10.37,2013-01-17 03:03:00,
2013-01-16 22:08:00,30.7,27.0,29.44,NW,307,0.0,0.0,86,0.00,CLR,CLR,0.00,WeatherDisplay:10.37,2013-01-17 03:08:00,
2013-01-16 22:19:00,30.7,27.0,29.44,WNW,299,0.0,0.0,86,0.00,CLR,CLR,0.00,WeatherDisplay:10.37,2013-01-17 03:19:00,
2013-01-16 22:28:00,30.6,26.9,29.44,WNW,290,0.0,3.0,86,0.00,CLR,CLR,0.00,WeatherDisplay:10.37,2013-01-17 03:28:00,
2013-01-16 22:39:00,30.6,26.9,29.44,NW,304,0.0,0.0,86,0.00,CLR,CLR,0.00,WeatherDisplay:10.37,2013-01-17 03:39:00,
2013-01-16 22:48:00,30.6,26.6,29.44,NNW,330,0.0,0.0,85,0.00,CLR,CLR,0.00,WeatherDisplay:10.37,2013-01-17 03:48:00,
2013-01-16 22:58:00,30.4,26.4,29.44,WNW,299,0.0,0.0,85,0.00,CLR,CLR,0.00,WeatherDisplay:10.37,2013-01-17 03:58:00,
2013-01-16 23:03:00,30.2,26.2,29.44,WNW,285,0.0,0.0,85,0.00,CLR,CLR,0.00,WeatherDisplay:10.37,2013-01-17 04:03:00,
2013-01-16 23:08:00,30.2,26.2,29.44,WNW,285,0.0,0.0,85,0.00,CLR,CLR,0.00,WeatherDisplay:10.37,2013-01-17 04:08:00,
2013-01-16 23:18:00,29.5,25.6,29.44,WNW,285,0.0,0.0,85,0.00,CLR,CLR,0.00,WeatherDisplay:10.37,2013-01-17 04:18:00,
2013-01-16 23:28:00,28.6,24.4,29.44,WNW,285,0.0,0.0,84,0.00,CLR,CLR,0.00,WeatherDisplay:10.37,2013-01-17 04:28:00,
2013-01-16 23:38:00,27.7,23.5,29.44,WNW,285,0.0,0.0,84,0.00,CLR,CLR,0.00,WeatherDisplay:10.37,2013-01-17 04:38:00,
2013-01-16 23:43:00,27.1,22.9,29.44,WNW,285,0.0,0.0,84,0.00,CLR,CLR,0.00,WeatherDisplay:10.37,2013-01-17 04:43:00,
2013-01-16 23:49:00,26.8,22.6,29.41,WNW,285,0.0,0.0,84,0.00,CLR,CLR,0.00,WeatherDisplay:10.37,2013-01-17 04:49:00,
2013-01-16 23:58:00,26.1,21.9,29.41,WNW,285,0.0,0.0,84,0.00,CLR,CLR,0.00,WeatherDisplay:10.37,2013-01-17 04:58:00,